sat.trackr.live / text

‹ back to catalog

STARLINK-3841

NORAD 52369 · 2022-045AQ

PAYLOAD ACTIVE UNKNOWN

§ Identity

Operator
Country
US
Launch date
2022-04-29
Launch site
AFETR
Launch vehicle
Mass (kg)
RCS (m²)

Purposes: comms

External: N2YO · Heavens-Above · Gunter

§ Orbital elements

Epoch: 2026-09-20T01:25:22.342368Z

Period
93.85 min
Inclination
53.1595°
Eccentricity
0.0001155
Mean motion
15.34397509 rev/d
Perigee alt
461.9 km
Apogee alt
463.5 km
Semi-major
6,840.8 km
B*
2.5953e-4
RAAN
27.4791°
Arg perigee
74.2250°
Mean anomaly
285.8879°
Rev number
24,538

§ Raw data

STARLINK-38411 52369U 22045AQ  26263.05928637  .00008402  00000+0  25953-3 0  99972 52369  53.1595  27.4791 0001155  74.2250 285.8879 15.34397509245382

JSON: /api/v1/satellites/52369 · /tle

For live sub-satellite position, see the globe view (requires WebGL).

§ Visibility from observer

Set your observer location to see the next 7 days of passes ≥ 10°. The values pass through the URL so the page stays shareable.

No JS? Fill the form by hand. The geolocation button needs JavaScript.